�������l�o���
Date,Time,MP-1(��Sv/h),MP-2(��Sv/h),MP-3(��Sv/h),MP-4(��Sv/h),MP-5(��Sv/h),MP-6(��Sv/h),MP-7(��Sv/h),MP-8(��Sv/h),����,����(m/s),���J
2017/12/27,00:00,0.890,1.480,0.929,1.755,1.178,0.492,0.878,0.844,���k��,5.0,��
2017/12/27,00:10,0.888,1.483,0.928,1.755,1.182,0.492,0.880,0.845,��,5.2,��
2017/12/27,00:20,0.889,1.481,0.929,1.756,1.181,0.492,0.880,0.843,���k��,8.3,��
2017/12/27,00:30,0.887,1.480,0.931,1.754,1.183,0.492,0.879,0.845,���k��,6.6,��
2017/12/27,00:40,0.888,1.481,0.929,1.755,1.181,0.491,0.879,0.842,���k��,6.8,��
2017/12/27,00:50,0.889,1.478,0.929,1.758,1.182,0.492,0.879,0.844,���k��,5.7,��
2017/12/27,01:00,0.886,1.479,0.928,1.755,1.181,0.491,0.880,0.844,��,6.4,��
2017/12/27,01:10,0.888,1.478,0.929,1.756,1.181,0.492,0.880,0.844,�k��,4.9,��
2017/12/27,01:20,0.889,1.478,0.928,1.757,1.180,0.492,0.882,0.842,�k��,4.0,��
2017/12/27,01:30,0.886,1.477,0.929,1.755,1.182,0.493,0.881,0.843,�k��,3.1,��
2017/12/27,01:40,0.888,1.478,0.931,1.755,1.182,0.489,0.879,0.842,�k��,2.0,��
2017/12/27,01:50,0.887,1.477,0.930,1.756,1.182,0.493,0.879,0.843,�k�k��,3.3,��
2017/12/27,02:00,0.888,1.478,0.929,1.754,1.182,0.492,0.881,0.843,�k�k��,2.6,��
2017/12/27,02:10,0.887,1.479,0.928,1.753,1.180,0.491,0.878,0.843,�k��,1.5,��
2017/12/27,02:20,0.890,1.479,0.928,1.755,1.181,0.491,0.878,0.843,�k��,0.8,��
2017/12/27,02:30,0.887,1.477,0.928,1.754,1.179,0.491,0.881,0.842,�k�k��,1.2,��
2017/12/27,02:40,0.886,1.475,0.929,1.754,1.180,0.490,0.879,0.843,�k�k��,1.5,��
2017/12/27,02:50,0.887,1.477,0.929,1.755,1.181,0.490,0.878,0.844,-,CALM,��
2017/12/27,03:00,0.887,1.481,0.928,1.755,1.180,0.491,0.880,0.842,�k��,1.1,��
2017/12/27,03:10,0.887,1.479,0.929,1.753,1.179,0.492,0.877,0.842,�k�k��,1.2,��
2017/12/27,03:20,0.887,1.477,0.929,1.753,1.179,0.490,0.878,0.843,�k,2.3,��
2017/12/27,03:30,0.887,1.478,0.927,1.754,1.178,0.492,0.880,0.842,�k,2.6,��
2017/12/27,03:40,0.887,1.477,0.928,1.752,1.177,0.492,0.878,0.843,�k,2.9,��
2017/12/27,03:50,0.887,1.479,0.929,1.755,1.179,0.488,0.879,0.841,�k,3.0,��
2017/12/27,04:00,0.886,1.479,0.927,1.752,1.181,0.491,0.880,0.841,�k,4.4,��
2017/12/27,04:10,0.889,1.478,0.928,1.754,1.180,0.490,0.877,0.842,�k�k��,4.5,��
2017/12/27,04:20,0.887,1.478,0.929,1.755,1.177,0.489,0.880,0.842,�k�k��,4.4,��
2017/12/27,04:30,0.886,1.474,0.928,1.753,1.178,0.489,0.878,0.842,�k�k��,4.9,�L
2017/12/27,04:40,0.884,1.473,0.926,1.752,1.179,0.489,0.879,0.844,�k�k��,5.2,�L
2017/12/27,04:50,0.886,1.472,0.926,1.751,1.178,0.489,0.880,0.843,�k�k��,5.9,��
2017/12/27,05:00,0.884,1.473,0.926,1.753,1.178,0.489,0.878,0.842,�k�k��,6.3,��
2017/12/27,05:10,0.882,1.473,0.925,1.750,1.177,0.489,0.877,0.841,�k�k��,4.4,�L
2017/12/27,05:20,0.882,1.473,0.924,1.750,1.177,0.488,0.878,0.841,�k�k��,4.8,�L
2017/12/27,05:30,0.882,1.468,0.925,1.749,1.178,0.491,0.880,0.843,�k�k��,3.1,��
2017/12/27,05:40,0.882,1.471,0.923,1.747,1.176,0.490,0.878,0.840,�k�k��,4.2,��
2017/12/27,05:50,0.883,1.469,0.923,1.747,1.177,0.490,0.879,0.842,�k�k��,4.5,��
2017/12/27,06:00,0.882,1.468,0.922,1.747,1.176,0.492,0.879,0.842,�k��,1.5,��
2017/12/27,06:10,0.881,1.466,0.925,1.749,1.178,0.491,0.877,0.843,��,0.8,��
2017/12/27,06:20,0.882,1.467,0.924,1.747,1.178,0.492,0.878,0.841,��,0.9,��
2017/12/27,06:30,0.881,1.466,0.922,1.748,1.175,0.490,0.877,0.843,��쓌,1.7,��
2017/12/27,06:40,0.881,1.466,0.923,1.747,1.175,0.490,0.881,0.842,��쓌,1.2,��
2017/12/27,06:50,0.879,1.464,0.923,1.747,1.173,0.491,0.879,0.842,��쓌,1.5,��
2017/12/27,07:00,0.878,1.461,0.923,1.747,1.174,0.491,0.878,0.843,��,2.9,��
2017/12/27,07:10,0.879,1.462,0.922,1.745,1.170,0.488,0.878,0.841,��,3.6,��
2017/12/27,07:20,0.878,1.467,0.924,1.744,1.175,0.489,0.878,0.843,��,3.0,��
2017/12/27,07:30,0.877,1.465,0.922,1.746,1.174,0.491,0.879,0.842,��,2.0,��
2017/12/27,07:40,0.878,1.466,0.921,1.744,1.173,0.490,0.877,0.842,��,1.7,��
2017/12/27,07:50,0.878,1.465,0.921,1.743,1.173,0.490,0.878,0.841,��쐼,0.9,��
2017/12/27,08:00,0.879,1.462,0.923,1.746,1.172,0.490,0.878,0.841,��쐼,1.5,��
2017/12/27,08:10,0.879,1.464,0.924,1.744,1.173,0.490,0.878,0.842,��,3.0,��
2017/12/27,08:20,0.878,1.466,0.923,1.744,1.174,0.490,0.877,0.843,�쐼,3.5,��
2017/12/27,08:30,0.880,1.465,0.923,1.744,1.173,0.490,0.879,0.842,�쐼,4.1,��
2017/12/27,08:40,0.879,1.464,0.923,1.747,1.172,0.489,0.877,0.842,���쐼,3.3,��
2017/12/27,08:50,0.878,1.465,0.921,1.747,1.175,0.490,0.878,0.843,��,3.7,��
2017/12/27,09:00,0.881,1.465,0.920,1.748,1.176,0.488,0.879,0.842,��,7.9,��
2017/12/27,09:10,0.881,1.467,0.924,1.745,1.173,0.490,0.880,0.843,���쐼,7.3,��
2017/12/27,09:20,0.882,1.464,0.925,1.749,1.175,0.491,0.879,0.841,���쐼,7.1,��
2017/12/27,09:30,0.881,1.465,0.926,1.750,1.177,0.489,0.881,0.843,���쐼,9.1,��
2017/12/27,09:40,0.882,1.469,0.924,1.746,1.177,0.490,0.880,0.842,���쐼,7.5,��
2017/12/27,09:50,0.882,1.469,0.927,1.748,1.176,0.488,0.877,0.842,���쐼,6.9,��
2017/12/27,10:00,0.882,1.470,0.926,1.747,1.176,0.488,0.881,0.843,��,9.9,��
2017/12/27,10:10,0.883,1.467,0.927,1.752,1.180,0.488,0.881,0.842,��,9.4,��
2017/12/27,10:20,0.884,1.470,0.925,1.752,1.176,0.490,0.880,0.844,��,9.4,��
2017/12/27,10:30,0.884,1.467,0.927,1.754,1.178,0.489,0.879,0.845,��,10.0,��
2017/12/27,10:40,0.883,1.468,0.928,1.750,1.177,0.491,0.880,0.844,���쐼,9.7,��
2017/12/27,10:50,0.885,1.473,0.929,1.751,1.178,0.492,0.877,0.843,��,10.2,��
2017/12/27,11:00,0.886,1.468,0.928,1.752,1.178,0.492,0.878,0.844,���k��,9.3,��
2017/12/27,11:10,0.884,1.472,0.928,1.754,1.179,0.490,0.879,0.844,��,7.5,��
2017/12/27,11:20,0.883,1.471,0.929,1.753,1.180,0.492,0.878,0.844,�k��,6.8,��
2017/12/27,11:30,0.883,1.469,0.928,1.753,1.182,0.492,0.879,0.844,�k�k��,9.2,��
2017/12/27,11:40,0.886,1.471,0.928,1.752,1.181,0.490,0.880,0.845,�k�k��,7.0,��
2017/12/27,11:50,0.885,1.473,0.927,1.755,1.182,0.494,0.879,0.844,�k��,5.9,��
2017/12/27,12:00,0.886,1.474,0.930,1.752,1.182,0.493,0.881,0.846,�k��,6.0,��
2017/12/27,12:10,0.886,1.473,0.929,1.754,1.184,0.493,0.879,0.844,�k��,5.1,��
2017/12/27,12:20,0.885,1.479,0.928,1.754,1.181,0.493,0.881,0.845,�k��,3.6,��
2017/12/27,12:30,0.887,1.476,0.929,1.754,1.183,0.493,0.881,0.844,�k�k��,3.7,��
2017/12/27,12:40,0.886,1.478,0.930,1.751,1.186,0.492,0.882,0.844,�k�k��,6.0,��
2017/12/27,12:50,0.887,1.475,0.928,1.755,1.185,0.491,0.880,0.846,�k�k��,6.5,��
2017/12/27,13:00,0.888,1.479,0.929,1.755,1.183,0.491,0.880,0.846,�k�k��,5.4,��
2017/12/27,13:10,0.887,1.478,0.930,1.755,1.187,0.492,0.882,0.847,�k��,5.8,��
2017/12/27,13:20,0.887,1.479,0.931,1.755,1.187,0.493,0.881,0.846,�k��,5.8,��
2017/12/27,13:30,0.888,1.479,0.931,1.757,1.188,0.492,0.882,0.845,�k��,7.0,��
2017/12/27,13:40,0.889,1.476,0.929,1.755,1.186,0.491,0.882,0.844,�k��,6.8,��
2017/12/27,13:50,0.889,1.477,0.929,1.757,1.188,0.491,0.880,0.845,�k��,7.9,��
2017/12/27,14:00,0.890,1.480,0.930,1.756,1.187,0.491,0.881,0.845,�k��,6.8,��
2017/12/27,14:10,0.889,1.479,0.931,1.755,1.187,0.492,0.881,0.845,�k��,6.8,��
2017/12/27,14:20,0.890,1.474,0.931,1.756,1.184,0.492,0.881,0.845,���k��,6.1,��
2017/12/27,14:30,0.889,1.479,0.931,1.757,1.188,0.491,0.880,0.845,�k��,8.0,��
2017/12/27,14:40,0.888,1.477,0.931,1.758,1.187,0.493,0.880,0.844,���k��,9.1,��
2017/12/27,14:50,0.888,1.479,0.930,1.760,1.188,0.492,0.879,0.845,�k��,7.0,��
2017/12/27,15:00,0.888,1.479,0.933,1.758,1.188,0.491,0.881,0.845,�k��,8.2,��
2017/12/27,15:10,0.887,1.477,0.932,1.753,1.186,0.492,0.881,0.844,���k��,8.2,��
2017/12/27,15:20,0.889,1.477,0.930,1.757,1.186,0.489,0.879,0.845,���k��,7.9,��
2017/12/27,15:30,0.886,1.481,0.929,1.757,1.186,0.490,0.882,0.845,���k��,8.9,��
2017/12/27,15:40,0.888,1.470,0.929,1.756,1.185,0.491,0.879,0.843,���k��,8.5,��
2017/12/27,15:50,0.886,1.474,0.928,1.753,1.187,0.491,0.880,0.844,���k��,10.3,��
2017/12/27,16:00,0.887,1.479,0.925,1.754,1.184,0.491,0.878,0.845,���k��,9.2,��
2017/12/27,16:10,0.885,1.477,0.930,1.753,1.187,0.489,0.880,0.843,���k��,9.2,��
2017/12/27,16:20,0.886,1.478,0.926,1.755,1.187,0.489,0.882,0.843,���k��,9.0,��
2017/12/27,16:30,0.884,1.478,0.928,1.756,1.183,0.488,0.880,0.844,���k��,9.2,��
2017/12/27,16:40,0.884,1.477,0.929,1.754,1.186,0.492,0.879,0.846,��,10.7,��
2017/12/27,16:50,0.885,1.478,0.927,1.756,1.185,0.489,0.880,0.845,��,9.5,��
2017/12/27,17:00,0.884,1.481,0.925,1.754,1.185,0.490,0.880,0.845,��,13.0,��
2017/12/27,17:10,0.884,1.479,0.927,1.755,1.183,0.489,0.880,0.846,��,9.8,��
2017/12/27,17:20,0.885,1.481,0.929,1.755,1.182,0.490,0.883,0.844,���k��,9.6,��
2017/12/27,17:30,0.885,1.480,0.928,1.755,1.182,0.491,0.880,0.844,���k��,10.7,��
2017/12/27,17:40,0.885,1.479,0.928,1.756,1.182,0.490,0.880,0.844,���k��,8.9,��
2017/12/27,17:50,0.885,1.479,0.925,1.754,1.182,0.488,0.880,0.845,��,8.7,��
2017/12/27,18:00,0.886,1.480,0.925,1.755,1.181,0.490,0.879,0.845,���k��,10.6,��
2017/12/27,18:10,0.886,1.478,0.930,1.757,1.183,0.489,0.879,0.844,���k��,9.1,��
2017/12/27,18:20,0.883,1.478,0.928,1.757,1.182,0.489,0.880,0.845,���k��,7.4,��
2017/12/27,18:30,0.884,1.478,0.929,1.757,1.184,0.491,0.876,0.846,���k��,9.5,��
2017/12/27,18:40,0.886,1.479,0.929,1.756,1.181,0.492,0.877,0.843,���k��,8.8,��
2017/12/27,18:50,0.884,1.478,0.929,1.759,1.184,0.489,0.880,0.843,���k��,9.9,��
2017/12/27,19:00,0.884,1.476,0.928,1.755,1.180,0.491,0.880,0.844,���k��,7.5,��
2017/12/27,19:10,0.885,1.481,0.928,1.757,1.185,0.492,0.879,0.843,���k��,7.5,��
2017/12/27,19:20,0.885,1.479,0.928,1.758,1.180,0.492,0.879,0.845,���k��,9.4,��
2017/12/27,19:30,0.886,1.476,0.931,1.755,1.183,0.491,0.879,0.845,���k��,9.5,��
2017/12/27,19:40,0.885,1.477,0.930,1.757,1.184,0.492,0.881,0.844,��,7.7,��
2017/12/27,19:50,0.886,1.481,0.931,1.758,1.181,0.491,0.881,0.844,���k��,9.0,��
2017/12/27,20:00,0.887,1.479,0.928,1.757,1.183,0.491,0.881,0.844,���k��,8.6,��
2017/12/27,20:10,0.886,1.479,0.931,1.756,1.182,0.492,0.878,0.843,��,7.3,��
2017/12/27,20:20,0.887,1.481,0.932,1.757,1.184,0.492,0.878,0.843,���k��,8.1,��
2017/12/27,20:30,0.886,1.478,0.928,1.757,1.185,0.494,0.878,0.845,���k��,9.6,��
2017/12/27,20:40,0.885,1.479,0.931,1.755,1.185,0.492,0.878,0.845,��,6.8,��
2017/12/27,20:50,0.885,1.480,0.929,1.756,1.186,0.492,0.879,0.844,���k��,9.5,��
2017/12/27,21:00,0.887,1.481,0.930,1.756,1.184,0.492,0.877,0.845,���k��,8.9,��
2017/12/27,21:10,0.885,1.478,0.929,1.759,1.184,0.490,0.880,0.845,���k��,8.8,��
2017/12/27,21:20,0.886,1.479,0.929,1.756,1.184,0.493,0.880,0.844,���k��,9.7,��
2017/12/27,21:30,0.885,1.481,0.930,1.762,1.182,0.491,0.880,0.845,���k��,9.3,��
2017/12/27,21:40,0.885,1.479,0.931,1.759,1.184,0.491,0.881,0.846,���k��,9.6,��
2017/12/27,21:50,0.886,1.478,0.930,1.760,1.184,0.490,0.876,0.845,���k��,8.7,��
2017/12/27,22:00,0.888,1.479,0.930,1.759,1.186,0.492,0.879,0.844,���k��,9.5,��
2017/12/27,22:10,0.886,1.479,0.931,1.759,1.186,0.491,0.878,0.846,���k��,8.1,��
2017/12/27,22:20,0.887,1.478,0.930,1.758,1.183,0.491,0.879,0.845,���k��,6.4,��
2017/12/27,22:30,0.886,1.481,0.934,1.758,1.184,0.491,0.880,0.845,�k��,9.2,��
2017/12/27,22:40,0.886,1.479,0.931,1.759,1.186,0.492,0.880,0.843,���k��,9.3,��
2017/12/27,22:50,0.887,1.481,0.932,1.757,1.183,0.491,0.881,0.844,�k��,8.4,��
2017/12/27,23:00,0.887,1.479,0.934,1.754,1.186,0.490,0.880,0.845,�k��,6.9,��
2017/12/27,23:10,0.887,1.480,0.932,1.759,1.183,0.493,0.880,0.845,�k��,8.7,��
2017/12/27,23:20,0.885,1.480,0.932,1.756,1.183,0.494,0.879,0.844,�k��,10.9,��
2017/12/27,23:30,0.887,1.480,0.932,1.761,1.185,0.491,0.878,0.844,�k��,11.3,��
2017/12/27,23:40,0.886,1.479,0.929,1.760,1.185,0.493,0.880,0.843,�k��,11.1,��
2017/12/27,23:50,0.887,1.480,0.929,1.760,1.183,0.492,0.879,0.844,�k��,10.4,��
